Location: Bukovany
(49.8234°N, 14.6297°E)
Time: 06:38:01
(UTC+00:00)

Timation 2 Rocket - Pass Details

Date: 17 November 2025
Orbit: 904 x 1074 km, 70.0° (Epoch: 12 December)

Event Time Altitude Azimuth Distance (km) Brightness Sun altitude
Rises 16:53:05 0° 205° (SSW) 3,843 7.7 -15.6°
Reaches altitude 10° 16:55:41 10° 205° (SSW) 2,899 7.0 -16.0°
Maximum altitude 17:02:34 84° 118° (ESE) 1,086 4.1 -17.1°
Enters shadow 17:09:02 12° 32° (NNE) 2,758 6.0 -18.1°
